2021-006M (47424 NORAD) Tracking and Keplerian Element Data

This shows tracking and keplerian element data for the satellite.

Feedback or suggestion? Click here.




ElementValue
Catalog47424
Name2021-006M
Epoch Orbit477
Epoch Day54.14644555
Epoch Year2021
RAAN117.4046
Inclination97.5055
Eccentricity0.0016427
Argument of Perigee153.7368
Mean Anonmoly206.47
Mean Motion15.13845291
Decay Rate4.07E-06
L11 47424U 21006M 21054.14644555 .00000407 00000-0 26087-4 0 9994
L22 47424 97.5055 117.4046 0016427 153.7368 206.4700 15.13845291 4776

Live tracking and technical data element details for 2021-006M (NORAD 47424). 2021-006M can be tracked NOW for your location showing map with azimuth and elevation plus other details from your city location.

Track the satellite on the map from your city or location and see movement details for azimuth, elevation, latitude, longitude, range, height, and movement on the map or in text.







IsCatalogInMostPopularTable: catalog: 47424, numindb: 13
Update: records affected: 1



GetName: 47424 2021-006M

Hit Count: updated at: Sat, 10 Apr 2021 18:29:10 GMT